This is the latest recevied weather packets stored in our database for station/object KK4WXG. If no packets are shown the sender has not sent any weather packets the latest 10 day(s).
| Time | Temp. | Humidity | Pressure | Rain* | Wind** | Luminosity | Snow |
|---|---|---|---|---|---|---|---|
| 1777568451 | 17.78° C | 43% | 1008.7 hPa | 0 mm | - | 1002 W/m² | - |
| 1777568148 | 17.22° C | 44% | 1008.4 hPa | 0 mm | - | 1001 W/m² | - |
| 1777566937 | 17.78° C | 45% | 1008.8 hPa | 0 mm | - | 1016 W/m² | - |
| 1777566634 | 17.22° C | 48% | 1008.8 hPa | 0 mm | - | 1009 W/m² | - |
| 1777566029 | 17.22° C | 49% | 1008.9 hPa | 0 mm | - | 219 W/m² | - |
| 1777565421 | 17.22° C | 50% | 1008.8 hPa | 0 mm | - | 897 W/m² | - |
| 1777565117 | 17.22° C | 51% | 1008.9 hPa | 0 mm | - | 928 W/m² | - |
| 1777564813 | 17.22° C | 52% | 1008.9 hPa | 0 mm | - | 776 W/m² | - |
| 1777564204 | 16.67° C | 56% | 1009.2 hPa | 0 mm | - | 898 W/m² | - |
| 1777563296 | 16.67° C | 54% | 1009 hPa | 0 mm | - | 948 W/m² | - |
| 1777562993 | 16.67° C | 53% | 1009.2 hPa | 0 mm | - | 917 W/m² | - |
| 1777562689 | 16.11° C | 58% | 1009.1 hPa | 0 mm | - | 967 W/m² | - |
| 1777561173 | 16.11° C | 55% | 1009.1 hPa | 0 mm | - | 320 W/m² | - |
| 1777560566 | 16.67° C | 59% | 1009 hPa | 0 mm | - | 865 W/m² | - |
| 1777560264 | 16.67° C | 57% | 1009.2 hPa | 0 mm | - | 850 W/m² | - |
| 1777558750 | 15.56° C | 58% | 1009.6 hPa | 0 mm | - | 894 W/m² | - |
| 1777557839 | 16.11° C | 60% | 1009.2 hPa | 0 mm | - | 698 W/m² | - |
| 1777556624 | 15.56° C | 62% | 1009.3 hPa | 0 mm | - | 598 W/m² | - |
| 1777553897 | 15° C | 68% | 1008.8 hPa | 0 mm | - | 440 W/m² | - |
| 1777551169 | 14.44° C | 68% | 1008.8 hPa | 0 mm | - | 261 W/m² | - |
| 1777550867 | 14.44° C | 70% | 1008.8 hPa | 0 mm | - | 241 W/m² | - |
| 1777550259 | 14.44° C | 71% | 1008.7 hPa | 0 mm | - | 200 W/m² | - |
| 1777547528 | 12.22° C | 80% | 1008.6 hPa | 0 mm | - | 44 W/m² | - |
| 1777547226 | 12.22° C | 80% | 1008.8 hPa | 0 mm | - | 45 W/m² | - |
| 1777545406 | 11.67° C | 87% | 1008.4 hPa | 0 mm | - | 15 W/m² | - |
* Rain latest hour (hover to see other rain measurements)
** Current wind speed in m/s (hover to see current wind gust speed)